Temperature
20 20 20 20 20 20 20 20 20 20 20 20 20 20 19 19 19 19 19 19 19 18 18 18 18 18 18 18 18 18 18 18 18 18 17 17 17 17 17 17 17 17 17
21 21 20 20 20 20 20 20 20 20 20 20 19 19 19 19 19 19 19 19 18 18 18 18 18 18 18 18 18 18 18 17 17 17 17 17 17 17 17 17 17 17 17
21 21 20 20 20 20 20 20 20 19 19 19 19 19 19 19 19 19 19 19 18 18 18 18 18 18 18 18 18 17 17 17 17 17 17 17 17 17 17 17 17 17 17
22 21 20 20 20 20 20 20 19 19 19 19 19 19 19 19 19 19 19 18 18 18 18 18 18 18 18 18 17 17 17 17 17 17 17 17 17 17 17 17 17 17 17
22 21 21 20 20 20 20 19 19 19 19 19 19 19 19 19 19 18 18 18 18 18 18 18 18 18 18 17 17 17 17 17 17 17 17 17 17 17 17 17 17 17 17
21 21 21 20 20 20 20 19 19 19 19 19 19 19 19 18 18 18 18 18 18 18 18 18 18 18 17 17 17 17 17 17 17 17 17 17 17 17 17 17 17 17 17
21 21 21 20 20 20 19 19 19 19 19 19 19 18 18 18 18 18 18 18 18 18 18 18 18 18 17 17 17 17 17 17 17 17 17 17 17 17 17 17 17 17 17
22 21 20 20 20 19 19 19 19 19 19 19 19 18 18 18 18 18 18 18 18 18 18 18 18 18 17 17 17 17 17 17 17 17 17 17 17 17 17 17 17 17 16
21 21 21 20 20 19 19 19 19 19 19 19 18 18 18 18 18 18 18 18 18 18 18 18 18 18 17 17 17 17 17 17 17 17 17 17 17 17 17 17 17 17 17
21 21 21 20 20 19 19 19 19 19 19 19 18 18 18 18 18 18 18 18 18 18 18 18 18 18 17 17 17 17 17 17 18 18 18 18 17 17 17 17 17 17 17
20 21 20 20 20 20 19 19 19 19 19 18 18 18 18 18 18 18 18 18 18 18 18 18 18 18 17 17 17 17 17 17 18 18 18 18 17 17 17 17 17 17 17
20 20 20 20 20 19 19 19 19 19 18 18 18 18 18 18 18 18 18 18 18 18 18 18 18 18 17 17 17 17 17 17 17 18 18 18 17 17 17 17 17 17 17
21 20 20 20 20 20 19 19 19 19 18 18 18 18 18 18 18 18 18 18 18 18 18 18 18 18 18 17 17 18 17 17 17 18 18 18 17 17 17 17 17 17 17
20 20 20 20 20 20 19 19 19 19 19 18 18 18 18 18 18 18 18 18 18 18 18 18 18 18 18 18 17 17 17 17 18 18 18 17 17 17 17 17 17 17 17
20 20 20 19 19 19 19 19 19 19 19 18 18 18 18 18 18 18 18 18 18 18 18 18 18 18 18 17 17 17 17 17 18 18 18 17 17 17 17 17 17 17 17
20 20 19 19 19 19 19 19 19 18 18 18 18 18 18 18 18 18 18 18 18 18 17 17 18 18 18 17 17 17 17 17 17 17 17 17 17 17 17 17 17 17 17
20 20 19 19 19 19 19 19 18 18 18 18 18 18 18 18 18 18 18 18 18 17 17 17 17 17 17 17 17 17 17 17 17 17 17 17 17 17 17 17 17 17 17
20 19 19 19 19 19 18 18 18 18 18 18 18 18 18 18 18 18 18 18 17 17 17 17 17 17 17 17 17 17 17 17 17 17 17 17 17 17 17 17 17 17 17
20 20 19 19 18 18 18 18 18 18 18 18 18 18 18 18 18 18 18 18 17 17 17 17 17 17 17 17 17 17 17 17 17 17 17 17 17 17 17 17 17 17 17
20 19 19 19 18 18 18 18 18 18 18 18 18 18 18 18 18 18 18 17 17 17 17 17 17 17 17 17 17 17 17 17 17 17 17 17 17 17 17 17 17 17 17
20 19 19 19 19 18 18 18 18 18 18 18 18 18 18 18 18 18 18 17 17 17 17 17 17 17 17 17 17 17 17 17 17 17 17 17 17 17 17 17 17 17 17
20 19 19 19 19 19 19 18 18 18 18 18 18 18 18 18 18 18 18 18 17 17 17 17 17 17 17 17 17 17 17 17 17 17 17 17 17 17 17 17 17 17 16
19 19 19 19 19 18 18 18 18 18 18 18 18 18 17 18 18 18 18 17 17 17 17 17 17 17 17 17 17 17 17 17 17 17 17 17 17 17 17 17 17 17 17
19 19 19 19 18 18 18 18 18 18 18 18 18 18 17 17 17 17 17 17 17 17 17 17 17 17 17 17 17 17 18 18 18 18 18 18 17 17 17 17 17 17 17
19 19 19 19 18 18 18 18 18 18 18 18 18 17 17 17 17 17 17 17 17 17 17 17 17 17 17 17 17 17 17 17 18 18 18 18 18 18 17 17 17 17 17
19 19 19 19 18 18 18 18 18 18 18 18 17 17 17 17 17 17 17 17 17 17 17 17 17 17 17 17 17 17 17 17 18 18 18 18 18 18 18 17 17 17 17
Wind_Speed
8 13 21 21 21 21 21 20 20 20 20 20 20 20 20 20 19 19 18 18 17 17 16 16 17 17 18 18 19 19 20 20 21 20 20 19 20 20 20 20 19 18 20
13 17 21 21 21 21 21 20 20 19 19 19 19 19 19 18 18 18 17 17 17 16 16 16 16 17 18 18 19 19 20 20 20 20 19 19 19 19 19 19 18 17 19
16 17 20 21 21 21 20 20 19 19 18 18 18 18 18 17 17 17 17 16 16 16 16 16 16 17 17 17 18 18 19 20 20 19 18 16 17 19 19 19 19 18 18
17 18 19 22 22 21 20 20 19 19 18 18 17 17 17 16 16 16 16 16 16 16 16 16 16 16 16 16 16 17 18 19 19 18 15 15 16 18 18 18 18 18 17
14 17 21 23 22 22 21 20 19 18 18 17 17 16 16 16 15 16 16 15 15 16 16 15 15 15 14 14 15 15 15 16 17 15 14 15 15 17 18 18 17 17 16
13 17 21 23 22 21 21 20 19 18 17 17 16 16 15 15 15 15 15 15 15 15 15 14 14 14 13 13 13 13 14 15 16 15 15 14 14 17 17 17 16 16 16
14 15 20 22 22 21 20 20 19 18 17 16 16 15 15 15 15 15 15 15 15 14 14 13 13 12 12 12 12 12 13 15 15 14 13 13 15 16 16 16 16 16 15
16 14 18 22 21 21 20 19 18 18 17 16 16 15 15 14 14 14 14 14 14 14 13 12 12 11 10 10 10 10 12 14 15 14 13 13 15 16 15 15 15 15 15
15 13 14 18 19 20 20 19 18 18 17 16 15 15 14 14 14 14 14 14 13 13 12 11 11 10 9 8 9 10 12 14 14 13 13 12 15 15 15 14 14 14 14
13 11 10 13 15 16 17 19 18 17 16 16 15 15 14 14 14 14 13 13 13 12 11 10 9 9 7 7 8 10 12 13 13 12 11 12 14 14 14 14 14 14 13
13 10 10 10 12 14 15 17 17 17 16 16 15 15 13 12 12 12 12 13 12 11 10 9 8 7 6 5 7 10 11 11 12 11 11 13 14 14 14 14 13 13 13
14 12 10 10 10 12 13 13 13 13 13 13 12 13 12 11 10 10 12 12 11 10 9 8 6 5 4 5 7 8 9 10 10 10 11 14 14 14 14 13 13 12 12
15 14 12 12 11 10 8 11 9 10 10 10 12 12 11 10 8 9 8 8 9 9 6 6 4 3 3 4 5 7 8 8 9 10 12 14 14 13 13 12 12 12 11
15 14 13 11 10 9 10 9 8 8 8 8 10 11 10 7 7 6 5 6 6 6 5 4 3 3 2 3 6 7 7 8 9 10 12 14 14 14 13 12 12 12 11
15 14 13 12 11 9 8 7 8 7 8 9 10 11 11 7 5 6 5 5 5 5 5 4 3 3 2 3 6 8 9 9 10 11 12 14 14 14 13 13 12 11 11
14 14 12 12 11 10 8 6 7 8 9 10 9 11 12 10 8 6 4 5 5 6 7 6 5 4 3 3 3 7 10 11 11 11 12 13 14 14 13 13 12 12 11
14 13 13 12 11 11 10 8 8 9 10 8 9 12 12 12 11 8 5 4 5 7 7 5 4 3 2 2 3 5 8 10 11 12 13 13 13 13 14 13 13 12 12
13 13 14 13 11 10 8 6 6 8 9 8 9 10 12 13 12 8 5 4 6 6 5 3 3 2 2 2 3 3 4 7 10 12 13 13 13 12 14 14 14 14 13
14 14 12 11 11 10 8 6 6 7 7 8 9 9 10 12 12 9 5 4 6 4 3 3 3 3 2 2 3 3 3 4 6 10 10 12 14 14 14 14 15 15 14
12 12 12 11 11 9 7 5 4 4 4 6 7 9 11 11 11 9 5 5 6 3 3 3 3 2 2 3 2 2 2 3 4 5 8 11 13 14 15 14 14 14 15
11 11 11 11 10 9 6 5 5 5 5 5 6 9 11 11 10 8 5 5 4 4 4 5 3 3 2 2 3 2 3 1 3 4 5 6 9 13 14 15 14 14 13
11 11 10 10 11 9 7 5 5 5 5 5 4 6 10 10 10 9 6 4 4 4 4 4 3 3 1 2 3 3 1 4 3 3 3 5 6 9 11 14 14 15 15
11 12 11 11 11 10 8 5 5 4 3 3 4 4 6 9 9 8 8 5 4 5 4 4 4 5 3 1 2 4 3 3 3 3 3 4 5 5 6 10 13 15 16
11 10 10 10 10 9 9 8 8 7 6 5 5 4 5 7 7 8 8 6 5 4 4 4 4 4 4 2 1 1 3 4 3 1 3 2 3 5 6 6 10 13 14
10 10 9 10 9 8 8 9 8 6 5 4 4 6 5 4 5 7 7 6 5 4 4 4 4 4 3 4 2 2 1 1 2 3 2 3 2 3 4 5 6 9 13
7 8 9 9 8 8 8 9 9 9 8 7 6 6 5 4 4 5 7 6 5 4 5 5 5 5 4 3 3 3 3 2 2 3 3 3 3 3 2 2 3 6 10
Wind_Direction
141 146 139 134 128 123 119 115 111 109 106 104 103 103 103 104 106 108 110 112 114 114 113 111 111 111 110 110 111 112 112 112 112 112 112 113 112 112 111 109 108 108 111
144 145 140 136 131 127 124 120 117 114 111 109 107 106 106 107 108 110 111 114 115 115 115 114 112 112 112 113 114 115 115 113 111 110 110 112 113 113 112 111 110 112 112
137 141 140 137 134 131 128 125 123 120 117 114 112 111 110 110 112 113 114 116 117 117 117 116 115 115 114 115 116 117 117 114 110 108 105 104 111 113 114 113 113 112 112
136 139 141 139 137 135 132 130 128 126 123 120 118 117 116 116 117 117 117 118 119 119 119 118 117 117 116 116 118 119 118 116 114 111 105 106 111 114 114 114 114 114 114
134 138 143 141 140 139 137 135 133 131 129 126 124 122 121 121 120 120 120 121 121 121 120 120 119 119 118 117 118 119 121 119 116 111 106 106 112 117 116 116 115 115 115
133 137 143 142 142 142 140 138 137 135 132 129 128 127 125 124 123 123 123 124 123 123 122 122 121 119 117 116 116 116 118 119 115 112 111 111 115 119 118 118 117 116 116
136 139 143 144 144 144 143 142 141 138 135 132 131 130 127 126 126 125 125 127 127 126 125 124 122 119 117 115 112 112 117 124 119 117 115 116 119 120 120 119 118 118 118
139 139 144 146 146 146 146 144 143 141 138 137 136 134 132 131 131 130 129 130 131 130 128 127 123 119 113 110 107 107 116 126 127 124 121 122 125 123 123 122 123 123 122
139 140 143 147 149 148 148 147 145 144 142 141 139 138 138 137 136 136 135 135 135 134 132 130 126 122 116 109 106 105 118 127 127 128 129 129 130 129 128 127 127 127 126
141 144 143 144 146 146 148 149 148 147 146 145 144 143 142 142 141 140 140 140 139 139 138 135 132 127 119 109 106 105 118 125 128 131 133 137 137 135 134 133 131 130 130
146 148 146 144 144 144 148 152 151 150 151 149 149 147 142 139 141 142 146 146 145 144 143 141 138 132 121 108 105 103 113 122 128 133 141 147 145 142 139 137 136 135 134
157 158 156 152 150 151 153 147 150 150 151 149 148 145 144 145 149 151 154 152 152 150 149 149 148 140 122 108 100 104 114 124 133 142 151 155 152 148 144 143 142 141 138
161 161 163 161 159 160 147 148 149 147 150 153 155 155 154 154 154 149 151 153 154 155 154 159 157 155 137 136 120 124 130 131 141 149 158 160 157 153 151 150 149 148 146
163 166 167 166 162 161 151 155 156 154 159 162 166 164 154 148 147 150 151 157 161 163 164 167 173 189 190 161 141 138 145 144 147 151 163 165 163 161 159 157 157 156 155
167 169 170 165 161 159 153 159 162 164 168 169 167 166 161 155 156 159 163 171 180 178 177 184 193 196 182 166 155 150 156 158 156 161 167 172 171 168 167 166 165 165 165
170 168 166 164 164 159 159 162 164 169 171 168 169 170 168 166 161 158 162 176 189 191 192 193 191 175 169 156 155 154 162 163 167 168 172 178 179 177 175 176 175 175 176
170 166 165 162 163 161 162 165 164 169 169 167 170 171 168 165 161 159 158 171 189 187 177 175 176 154 152 156 148 151 161 169 173 176 179 182 186 187 186 185 186 186 187
164 163 166 166 164 163 159 158 159 164 165 169 167 167 166 164 164 157 156 171 184 174 160 152 149 135 143 152 155 161 159 172 178 182 184 187 190 193 197 196 196 197 198
162 161 162 157 163 163 159 155 151 155 162 166 163 165 167 167 164 157 158 170 173 153 147 159 144 144 154 171 177 171 169 170 182 188 191 196 198 200 201 204 206 205 207
159 157 157 158 160 158 155 145 134 140 160 163 163 168 167 168 164 156 158 169 162 140 140 145 142 139 157 166 167 160 191 193 187 191 198 200 204 207 207 207 211 214 216
156 157 160 161 161 159 159 154 147 157 166 167 173 170 168 168 164 156 162 164 155 156 164 156 139 135 143 127 91 38 345 318 223 206 201 197 205 209 209 211 213 217 221
161 160 163 166 166 168 167 162 158 155 161 169 171 168 172 172 171 167 161 166 160 151 151 152 141 138 139 134 129 109 16 336 316 239 210 202 205 205 208 212 215 219 222
165 168 171 171 169 170 163 145 131 117 108 136 164 170 180 177 175 167 166 164 164 158 164 168 157 148 159 184 152 146 154 216 275 303 243 217 202 198 208 211 215 220 221
172 170 170 170 169 168 162 159 158 162 169 183 177 177 179 174 173 171 167 167 165 164 174 181 163 154 149 167 198 197 177 160 162 266 307 266 221 208 207 211 216 219 219
168 169 169 168 170 169 166 166 164 168 171 165 158 167 176 180 175 172 171 164 167 172 177 172 155 156 159 163 173 180 154 133 139 149 234 287 291 240 216 213 209 213 213
165 168 166 166 172 171 168 168 171 171 165 161 168 174 177 183 183 181 174 171 173 176 183 182 170 165 169 160 161 159 156 161 184 164 191 233 250 268 246 219 211 214 213
Height
1525 1527 1529 1530 1532 1533 1534 1535 1537 1538 1539 1540 1541 1542 1543 1544 1545 1546 1547 1547 1548 1549 1550 1551 1551 1552 1552 1553 1553 1554 1554 1555 1556 1557 1557 1558 1559 1559 1560 1560 1561 1561 1562
1523 1527 1530 1531 1533 1534 1536 1537 1538 1539 1541 1542 1543 1544 1545 1546 1547 1548 1548 1549 1550 1551 1551 1552 1553 1554 1554 1555 1555 1556 1557 1557 1558 1559 1560 1560 1561 1561 1562 1563 1563 1564 1565
1524 1527 1530 1532 1534 1535 1537 1538 1540 1541 1542 1543 1544 1545 1546 1547 1548 1549 1550 1551 1552 1552 1553 1554 1555 1555 1556 1557 1558 1558 1559 1560 1561 1561 1562 1562 1563 1564 1564 1565 1565 1566 1567
1525 1528 1530 1533 1535 1536 1538 1540 1541 1542 1543 1545 1546 1547 1548 1549 1550 1550 1551 1552 1553 1554 1555 1556 1557 1558 1559 1559 1560 1561 1562 1562 1563 1564 1564 1564 1565 1566 1566 1567 1567 1568 1569
1526 1529 1531 1533 1535 1537 1539 1541 1542 1544 1545 1546 1547 1548 1549 1550 1551 1552 1553 1554 1555 1556 1557 1558 1559 1560 1561 1562 1562 1563 1564 1564 1565 1566 1566 1566 1567 1568 1568 1569 1569 1570 1571
1527 1529 1532 1534 1536 1538 1540 1541 1543 1544 1546 1547 1548 1549 1550 1551 1552 1553 1554 1555 1557 1558 1559 1560 1561 1562 1563 1564 1565 1565 1566 1567 1567 1568 1568 1569 1569 1570 1570 1571 1572 1572 1573
1527 1530 1532 1535 1537 1539 1540 1542 1544 1545 1547 1548 1549 1551 1552 1553 1554 1555 1556 1557 1558 1559 1561 1562 1563 1564 1565 1566 1567 1568 1568 1569 1569 1570 1570 1571 1571 1572 1572 1573 1574 1574 1575
1527 1530 1533 1535 1537 1539 1541 1543 1545 1546 1548 1549 1550 1552 1553 1554 1555 1556 1557 1559 1560 1561 1563 1564 1565 1566 1568 1569 1569 1569 1570 1571 1571 1572 1573 1573 1573 1574 1574 1575 1576 1576 1577
1528 1530 1532 1535 1537 1539 1541 1543 1545 1547 1549 1550 1552 1553 1554 1555 1556 1557 1559 1560 1561 1563 1564 1566 1567 1568 1570 1571 1571 1572 1572 1573 1573 1574 1574 1575 1576 1576 1576 1577 1578 1578 1579
1528 1530 1533 1535 1537 1539 1541 1544 1546 1548 1549 1551 1553 1554 1555 1557 1558 1559 1560 1562 1563 1564 1566 1567 1569 1570 1571 1573 1573 1574 1574 1575 1575 1576 1576 1577 1577 1578 1578 1579 1580 1580 1581
1528 1530 1532 1534 1537 1539 1541 1543 1546 1548 1550 1552 1553 1555 1556 1558 1559 1560 1562 1563 1565 1566 1567 1569 1570 1572 1573 1574 1575 1575 1576 1577 1577 1578 1578 1579 1579 1580 1580 1581 1581 1582 1583
1527 1529 1532 1534 1536 1539 1541 1543 1545 1548 1550 1552 1554 1555 1557 1559 1560 1561 1563 1564 1566 1567 1569 1570 1572 1573 1575 1576 1576 1577 1577 1578 1579 1579 1579 1580 1581 1581 1582 1582 1583 1584 1584
1526 1528 1531 1534 1536 1538 1540 1543 1545 1548 1550 1552 1554 1556 1558 1559 1561 1562 1564 1566 1567 1569 1570 1572 1573 1575 1576 1577 1578 1578 1579 1579 1580 1581 1581 1581 1582 1583 1583 1584 1584 1585 1585
1525 1527 1530 1533 1535 1538 1540 1543 1545 1548 1550 1552 1554 1556 1558 1560 1561 1563 1565 1567 1568 1570 1571 1573 1574 1576 1577 1578 1579 1579 1580 1580 1581 1581 1582 1582 1583 1584 1584 1585 1585 1586 1587
1523 1526 1529 1531 1534 1537 1540 1542 1545 1548 1550 1552 1554 1556 1558 1560 1562 1564 1565 1567 1569 1571 1572 1574 1575 1576 1577 1578 1579 1579 1580 1581 1581 1582 1582 1583 1584 1584 1585 1585 1586 1587 1587
1522 1524 1527 1530 1533 1536 1539 1542 1544 1547 1550 1552 1554 1556 1558 1560 1562 1564 1566 1567 1569 1571 1573 1574 1575 1577 1578 1578 1579 1580 1581 1581 1582 1583 1583 1584 1584 1585 1585 1586 1587 1587 1588
1520 1522 1525 1528 1531 1534 1538 1541 1544 1547 1549 1551 1554 1556 1558 1560 1562 1564 1565 1567 1569 1571 1573 1574 1576 1577 1578 1579 1579 1580 1581 1582 1582 1583 1584 1584 1584 1585 1585 1586 1587 1587 1588
1518 1521 1523 1526 1529 1533 1536 1540 1543 1546 1548 1551 1553 1556 1558 1560 1562 1563 1565 1567 1569 1571 1572 1574 1575 1576 1578 1579 1580 1581 1581 1582 1583 1583 1584 1584 1585 1585 1585 1586 1586 1587 1587
1516 1519 1521 1525 1528 1532 1535 1539 1542 1545 1547 1550 1553 1555 1557 1559 1561 1563 1565 1567 1569 1570 1572 1573 1575 1576 1577 1579 1580 1580 1581 1582 1582 1583 1583 1584 1584 1585 1585 1585 1586 1586 1587
1515 1517 1520 1523 1527 1531 1534 1538 1541 1544 1547 1550 1552 1554 1556 1559 1560 1563 1564 1566 1568 1570 1571 1573 1574 1576 1577 1578 1579 1580 1581 1581 1581 1582 1583 1583 1584 1584 1585 1585 1585 1585 1586
1514 1517 1519 1522 1526 1529 1533 1536 1539 1542 1545 1548 1551 1553 1555 1557 1560 1562 1564 1565 1567 1569 1570 1572 1573 1575 1576 1577 1578 1579 1580 1580 1581 1581 1582 1582 1583 1583 1584 1584 1584 1585 1585
1513 1515 1518 1521 1524 1527 1531 1535 1538 1541 1544 1547 1550 1552 1554 1556 1558 1560 1562 1564 1566 1568 1569 1571 1572 1573 1575 1576 1577 1578 1579 1580 1579 1580 1581 1581 1581 1582 1582 1583 1583 1584 1584
1512 1514 1517 1520 1523 1526 1530 1534 1537 1540 1543 1545 1547 1550 1552 1555 1557 1559 1561 1563 1565 1566 1568 1569 1571 1572 1573 1575 1576 1577 1577 1577 1578 1579 1579 1580 1580 1580 1581 1581 1582 1582 1582
1511 1514 1517 1520 1522 1526 1529 1532 1535 1537 1540 1542 1545 1548 1550 1553 1555 1557 1559 1561 1563 1565 1566 1568 1569 1570 1572 1573 1574 1575 1576 1576 1577 1577 1578 1578 1579 1579 1579 1580 1580 1580 1581
1511 1514 1516 1519 1522 1525 1527 1531 1534 1536 1538 1541 1543 1546 1548 1551 1553 1555 1557 1559 1561 1563 1564 1566 1567 1569 1570 1571 1572 1573 1574 1574 1575 1575 1575 1576 1577 1577 1577 1578 1578 1578 1579
1511 1513 1515 1517 1520 1523 1526 1529 1531 1534 1536 1539 1541 1544 1546 1548 1551 1553 1555 1557 1559 1561 1562 1564 1565 1567 1568 1569 1570 1571 1572 1573 1573 1573 1574 1574 1574 1575 1575 1576 1576 1576 1577